Location: Wien
(48.2082°N, 16.3738°E)
Time: 09:30:26
(UTC+02:00)

Transit 4A - Pass Details

Date: 23 February 2024
Orbit: 871 x 971 km, 66.8° (Epoch: 24 April)

Event Time Altitude Azimuth Distance (km) Brightness Sun altitude
Exits shadow 04:43:37 17° 321° (NW) 2,154 9.5 -21.5°
Maximum altitude 04:44:54 18° 337° (NNW) 2,091 9.6 -21.3°
Drops below altitude 10° 04:48:51 10° 18° (NNE) 2,577 10.5 -20.6°
Sets 04:52:14 0° 38° (NE) 3,503 11.6 -20.0°
